TEVEL2-8

Last updated on Fri Dec 19 2025 00:03:12 GMT+0000 (Coordinated Universal Time)

1 63239U 25052AF 25352.46339773 .00014608 00000+0 58483-3 0 9995 2 63239 97.4152 243.6902 0009317 66.4005 293.8211 15.25123708 42411
UTC large
Height (km)
Speed (km/s)
/
Latitude / Longitude
Inclination (degrees)
Orbital Period (minutes)
Azimuth
Elevation
Range (km)
Doppler Factor

Next 0 passes for location: London (51.5072 / 0.1276)

Sorry there are no passes over London.